Regional Weather Roundup
Issued by NWS Green Bay, WI

Home | Current Version | Previous Version | Text Only | Print | Product List | Glossary On
Versions: 1 2 3 4 5 6 7 8 9 10 11 12 13 14 15 16 17 18 19 20 21 22 23 24 25 26 27 28 29 30 31 32 33 34 35 36 37 38 39 40 41 42 43 44 45 46 47 48 49 50
000
ASUS43 KGRB 242001
RWRGRB

NORTH-CENTRAL AND NORTHEAST WISCONSIN REGIONAL WEATHER ROUNDUP
NATIONAL WEATHER SERVICE GREEN BAY WI
300 PM CDT MON APR 24 2017

WIZ005-009-010>012-018-019-242100-
NORTH CENTRAL WISCONSIN

CITY           SKY/WX    TMP DP  RH WIND       PRES   REMARKS
IRONWOOD       CLOUDY    64  31  28 S13G23    29.76F
MANITOWISH WTR NOT AVBL
ARBOR VITAE    NOT AVBL
EAGLE RIVER    NOT AVBL
LAND O LAKES   NOT AVBL
RHINELANDER    CLOUDY    66  28  24 S17G30    29.82F
PHILLIPS       PTSUNNY   64  33  31 S15G24    29.77F
ANTIGO         NOT AVBL
TOMAHAWK       NOT AVBL
MERRILL        NOT AVBL
$$

WIZ013-073-242100-
NORTHEAST WISCONSIN

CITY           SKY/WX    TMP DP  RH WIND       PRES   REMARKS
IRON MOUNTAIN  PTSUNNY   62  34  35 S12G22    29.86F
MARINETTE      MOSUNNY   50  39  66 E10       29.93F
$$

WIZ017-030-035>037-045-242100-
CENTRAL WISCONSIN

CITY           SKY/WX    TMP DP  RH WIND       PRES   REMARKS
MEDFORD        NOT AVBL
WAUSAU         MOSUNNY   65  31  28 S21       29.81F
MOSINEE        NOT AVBL
MARSHFIELD     MOSUNNY   67  31  26 S21G26    29.79F
WISC RAPIDS    NOT AVBL
STEVENS POINT  NOT AVBL
WAUPACA        NOT AVBL
SHAWANO        CLOUDY    66  38  35 SE7       29.88F
CLINTONVILLE   NOT AVBL
WAUTOMA        MOSUNNY   70  32  24 S15       29.84F
$$

WIZ038-039-048-051-242100-
FOX VALLEY

CITY           SKY/WX    TMP DP  RH WIND       PRES   REMARKS
NWS GREEN BAY  CLOUDY    58  46  64 NE9       29.89F
APPLETON       NOT AVBL
OSHKOSH        CLOUDY    70  33  25 S10G20    29.86F
FOND DU LAC    SUNNY     70  32  24 S17G23    29.86F
$$

WIZ022-050-052-242100-
EAST CENTRAL WISCONSIN

CITY           SKY/WX    TMP DP  RH WIND       PRES   REMARKS
EPHRAIM        NOT AVBL
WASHINGTON ISL NOT AVBL
STURGEON BAY   MOSUNNY   49  39  68 SE13      29.93F
MANITOWOC      NOT AVBL
SHEBOYGAN      MOSUNNY   62  39  42 S13G21    29.91F
$$

LMZ563-521-522-541>543-242100-
LAKESHORE

STATION/POSITION TIME  TEMP    WIND        PRES    VSBY  WAVE
                       AIR SEA DIR/SP/G                  HT/PER
                 (UTC) (F)     (DEG/KT/KT) (MB)    (MI)  (FT/S)
SHEBOYGAN LKSHOR 1900   43     160/  9/ 10 1014.2F
KEWAUNEE LKSHORE 1930   45     100/  6/  8 1013.8F
NORTHPORT PIER   1940   40     100/ 11/ 13 1014.6F
N MID LAKE BUOY  1850   40 37   80/  8/ 10 1017.1F         1/ 4
CHAMBERS ISLAND  1940   46      60/  9/ 12 1013.5F
MENOMINEE LKSHOR 1930   42      30/ 13/ 15 1013.1F
$$




USA.gov is the U.S. government's official web portal to all federal, state and local government web resources and services.